Date String (YYYY-MM-DD hh:mm:ss) UTC,Instrument flags,Ambient pressure (hPa),Sample flow (lpm),Bypass flow (lpm),Sample temperature (°C),Ambient temperature (°C),ASC tube jacket temperature (°C),LED temperature (°C),Box temperature (°C),Sample RH (%),Span deviation,Mass concentration (μg/m³),Mass concentration (μg/m³),Mass concentration (μg/m³)
DateTimeUTC,F1_M11,P_M11,Q1_M11,Q2_M11,T1_M11,T2_M11,T3_M11,T4_M11,T5_M11,U1_M11,ZSPAN_M11,X0_M11,X2_M11,X1_M11
2022-02-08 01:00:00,,0828.5,4.99,0.00,27.7,26.9,00.0,36.9,29.4,05.5,0000.0,0001.64,0001.13,0000.89
2022-02-08 01:01:00,,0828.8,5.00,0.00,27.8,26.9,00.0,36.9,29.4,05.5,0000.0,0001.84,0001.20,0000.92
2022-02-08 01:02:00,,0828.8,5.01,0.00,27.7,26.9,00.0,36.9,29.4,05.5,0000.0,0001.91,0001.24,0000.94
2022-02-08 01:03:00,,0828.7,4.99,0.00,27.7,26.9,00.0,36.9,29.4,05.4,0000.0,0001.91,0001.23,0000.94
2022-02-08 01:04:00,,0828.6,4.99,0.00,27.7,26.9,00.0,36.9,29.4,05.3,0000.0,0001.87,0001.20,0000.93
2022-02-08 01:05:00,,0828.8,5.02,0.00,27.7,26.9,00.0,36.9,29.4,05.1,0000.0,0001.85,0001.16,0000.89
2022-02-08 01:06:00,,0828.6,4.99,0.00,27.7,26.9,00.0,36.9,29.4,05.1,0000.0,0001.87,0001.15,0000.86
2022-02-08 01:07:00,,0829.0,4.99,0.00,27.7,26.9,00.0,36.8,29.4,05.3,0000.0,0001.90,0001.16,0000.86
2022-02-08 01:08:00,,0829.1,5.00,0.00,27.7,26.9,00.0,36.8,29.4,05.3,0000.0,0001.89,0001.15,0000.85
2022-02-08 01:09:00,,0828.8,5.00,0.00,27.7,26.9,00.0,36.8,29.4,05.4,0000.0,0003.10,0001.12,0000.81
2022-02-08 01:10:00,,0828.8,5.01,0.00,27.7,26.9,00.0,36.8,29.4,05.6,0000.0,0003.22,0001.05,0000.76
2022-02-08 01:11:00,,0828.5,4.99,0.00,27.7,26.9,00.0,36.8,29.4,05.6,0000.0,0003.04,0000.96,0000.71
2022-02-08 01:12:00,,0828.7,4.99,0.00,27.7,26.9,00.0,36.8,29.4,05.5,0000.0,0002.82,0000.88,0000.67
2022-02-08 01:13:00,,0828.6,5.01,0.00,27.7,26.9,00.0,36.8,29.3,05.4,0000.0,0002.80,0000.85,0000.63
2022-02-08 01:14:00,,0828.7,5.00,0.00,27.6,26.9,00.0,36.8,29.4,05.5,0000.0,0002.89,0000.87,0000.62
2022-02-08 01:15:00,,0828.5,4.99,0.00,27.6,26.9,00.0,36.8,29.4,05.5,0000.0,0002.95,0000.86,0000.61
2022-02-08 01:16:00,,0828.8,5.00,0.00,27.6,26.9,00.0,36.7,29.3,05.3,0000.0,0002.98,0000.83,0000.62
2022-02-08 01:17:00,,0828.7,5.00,0.00,27.6,26.8,00.0,36.7,29.3,05.2,0000.0,0002.98,0000.83,0000.61
2022-02-08 01:18:00,,0828.7,4.98,0.00,27.6,26.8,00.0,36.7,29.4,05.2,0000.0,0003.10,0000.86,0000.61
2022-02-08 01:19:00,,0828.4,5.00,0.00,27.6,26.8,00.0,36.7,29.3,05.3,0000.0,0003.21,0000.89,0000.60
2022-02-08 01:20:00,,0828.5,5.01,0.00,27.6,26.8,00.0,36.7,29.3,05.2,0000.0,0002.56,0000.90,0000.60
2022-02-08 01:21:00,,0828.5,4.99,0.00,27.6,26.8,00.0,36.7,29.3,05.3,0000.0,0001.79,0000.88,0000.59
2022-02-08 01:22:00,,0829.0,5.00,0.00,27.6,26.8,00.0,36.7,29.3,05.9,0000.0,0001.91,0000.94,0000.61
2022-02-08 01:23:00,,0829.0,4.99,0.00,27.6,26.8,00.0,36.7,29.3,05.9,0000.0,0002.39,0001.05,0000.68
2022-02-08 01:24:00,,0829.0,4.99,0.00,27.6,26.8,00.0,36.7,29.3,05.7,0000.0,0003.38,0001.12,0000.75
2022-02-08 01:25:00,,0828.5,5.01,0.00,27.5,26.7,00.0,36.7,29.2,05.7,0000.0,0003.54,0001.20,0000.81
2022-02-08 01:26:00,,0828.4,4.99,0.00,27.5,26.6,00.0,36.7,29.2,05.8,0000.0,0003.59,0001.26,0000.88
2022-02-08 01:27:00,,0828.9,5.01,0.00,27.5,26.6,00.0,36.6,29.1,05.8,0000.0,0003.59,0001.36,0000.95
2022-02-08 01:28:00,,0828.8,5.00,0.00,27.4,26.6,00.0,36.6,29.1,05.8,0000.0,0003.70,0001.47,0001.05
2022-02-08 01:29:00,,0828.6,4.99,0.00,27.4,26.6,00.0,36.6,29.1,05.8,0000.0,0003.76,0001.54,0001.12
2022-02-08 01:30:00,,0828.4,5.02,0.00,27.4,26.6,00.0,36.6,29.1,05.4,0000.0,0003.69,0001.56,0001.15
2022-02-08 01:31:00,,0828.4,5.00,0.00,27.4,26.6,00.0,36.6,29.1,05.5,0000.0,0003.76,0001.61,0001.19
2022-02-08 01:32:00,,0828.3,5.00,0.00,27.4,26.6,00.0,36.5,29.1,05.4,0000.0,0003.94,0001.65,0001.21
2022-02-08 01:33:00,,0828.4,5.00,0.00,27.4,26.6,00.0,36.5,29.1,05.4,0000.0,0003.94,0001.64,0001.21
2022-02-08 01:34:00,,0828.5,5.00,0.00,27.4,26.6,00.0,36.5,29.1,05.3,0000.0,0003.78,0001.55,0001.16
2022-02-08 01:35:00,,0828.4,5.00,0.00,27.4,26.6,00.0,36.5,29.0,05.4,0000.0,0002.71,0001.44,0001.09
2022-02-08 01:36:00,,0828.4,5.02,0.00,27.3,26.5,00.0,36.5,29.0,05.5,0000.0,0002.20,0001.34,0001.04
2022-02-08 01:37:00,,0828.4,4.99,0.00,27.3,26.5,00.0,36.5,29.0,05.2,0000.0,0002.00,0001.23,0000.96
2022-02-08 01:38:00,,0828.6,5.00,0.00,27.3,26.5,00.0,36.4,29.0,05.2,0000.0,0001.87,0001.13,0000.88
2022-02-08 01:39:00,,0828.9,5.00,0.00,27.3,26.5,00.0,36.4,29.0,05.3,0000.0,0001.77,0001.05,0000.80
2022-02-08 01:40:00,,0829.0,5.01,0.00,27.3,26.5,00.0,36.4,29.0,05.3,0000.0,0001.62,0000.96,0000.72
2022-02-08 01:41:00,,0828.4,5.00,0.00,27.3,26.5,00.0,36.4,29.0,05.3,0000.0,0001.56,0000.93,0000.69
2022-02-08 01:42:00,,0828.4,4.99,0.00,27.3,26.5,00.0,36.4,29.0,05.4,0000.0,0001.40,0000.85,0000.66
2022-02-08 01:43:00,,0828.4,5.01,0.00,27.3,26.4,00.0,36.4,28.9,05.3,0000.0,0001.48,0000.81,0000.63
2022-02-08 01:44:00,,0828.3,4.99,0.00,27.3,26.4,00.0,36.4,28.9,05.3,0000.0,0002.01,0000.78,0000.61
2022-02-08 01:45:00,,0828.3,5.00,0.00,27.3,26.4,00.0,36.4,29.0,05.3,0000.0,0002.77,0000.76,0000.59
2022-02-08 01:46:00,,0828.3,5.02,0.00,27.3,26.5,00.0,36.3,29.0,05.4,0000.0,0003.55,0000.77,0000.57
2022-02-08 01:47:00,,0828.3,5.00,0.00,27.3,26.5,00.0,36.3,29.0,05.3,0000.0,0003.93,0000.78,0000.56
2022-02-08 01:48:00,,0828.2,5.00,0.00,27.2,26.4,00.0,36.3,28.9,05.3,0000.0,0004.30,0000.78,0000.54
2022-02-08 01:49:00,,0828.3,4.99,0.00,27.2,26.5,00.0,36.3,29.0,05.3,0000.0,0004.26,0000.76,0000.53
2022-02-08 01:50:00,,0828.3,5.00,0.00,27.2,26.5,00.0,36.3,29.0,05.4,0000.0,0004.17,0000.72,0000.52
2022-02-08 01:51:00,,0828.4,4.99,0.00,27.2,26.5,00.0,36.3,29.0,05.4,0000.0,0004.15,0000.69,0000.51
2022-02-08 01:52:00,,0828.3,5.01,0.00,27.3,26.5,00.0,36.3,29.0,05.4,0000.0,0004.33,0000.67,0000.50
2022-02-08 01:53:00,,0828.3,5.00,0.00,27.3,26.5,00.0,36.3,29.0,05.3,0000.0,0004.80,0000.66,0000.49
2022-02-08 01:54:00,,0828.3,4.99,0.00,27.3,26.5,00.0,36.3,29.0,05.3,0000.0,0004.61,0000.66,0000.50
2022-02-08 01:55:00,,0828.3,5.00,0.00,27.2,26.5,00.0,36.3,28.9,05.3,0000.0,0003.99,0000.65,0000.49
2022-02-08 01:56:00,,0828.3,5.01,0.00,27.2,26.4,00.0,36.3,28.9,05.3,0000.0,0003.14,0000.62,0000.48
2022-02-08 01:57:00,,0828.4,4.99,0.00,27.2,26.4,00.0,36.3,28.9,05.3,0000.0,0002.30,0000.59,0000.47
2022-02-08 01:58:00,,0828.3,5.01,0.00,27.2,26.4,00.0,36.3,28.9,05.2,0000.0,0001.94,0000.57,0000.46
2022-02-08 01:59:00,,0828.3,5.01,0.00,27.2,26.4,00.0,36.3,28.9,05.1,0000.0,0001.61,0000.58,0000.46
